Regional Weather Roundup
Issued by NWS Newport/Morehead, NC

Current Version | Previous Version | Graphics & Text | Print | Product List | Glossary On
Versions: 1 2 3 4 5 6 7 8 9 10 11 12 13 14 15 16 17 18 19 20 21 22 23 24 25 26 27 28 29 30 31 32 33 34 35 36 37 38 39 40 41 42 43 44 45 46 47 48 49 50
000 ASUS42 KMHX 291125 RWRMHX WEATHER ROUNDUP FOR EASTERN NORTH CAROLINA NATIONAL WEATHER SERVICE NEWPORT/MOREHEAD CITY NC 700 AM EDT FRI JUL 29 2016 NOTE: "FAIR" INDICATES FEW OR NO CLOUDS BELOW 12,000 FEET WITH NO SIGNIFICANT WEATHER AND/OR OBSTRUCTIONS TO VISIBILITY NCZ015>017-031-032-045>047-102-103-291200- NORTH COAST CITY SKY/WX TMP DP RH WIND PRES REMARKS EDENTON CLEAR 84 73 69 SW9 29.86R ELIZABETH CITY CLEAR 81 72 74 SW15 29.83R KITTY HAWK SUNNY 82 73 73 SW8G16 29.84R MANTEO N/A 81 77 86 W12 29.86R $$ NCZ045>047-081-094-103-104-291200- CENTRAL COAST CITY SKY/WX TMP DP RH WIND PRES REMARKS FRISCO CLEAR 80 77 90 W9 29.88R $$ NCZ095-097-098-100-101-291200- SOUTHERN COAST CITY SKY/WX TMP DP RH WIND PRES REMARKS BEAUFORT CLEAR 82 78 88 SW9 29.90R CEDAR ISLAND NOT AVBL JACKSONVILLE CLEAR 79 74 84 SW7 29.89S PINEY ISLAND NOT AVBL WILMINGTON CLEAR 80 76 87 SW9 29.92R $$ NCZ011>013-027>030-043-044-078>080-089-090>093-098-291200- COASTAL PLAIN CITY SKY/WX TMP DP RH WIND PRES REMARKS AHOSKIE CLEAR 75 72 90 CALM 29.85R CLINTON CLEAR 77 74 91 SW3 29.90R ELIZABETHTOWN PTCLDY 78 75 90 SW7 29.91S GOLDSBORO CLEAR 80 74 83 SW9 29.86R GREENVILLE CLEAR 79 75 89 SW6 29.88S HAVELOCK CLEAR 79 74 84 SW8 29.90R KENANSVILLE NOT AVBL KINSTON CLEAR 79 73 83 SW7 29.88S NEW BERN CLEAR 79 74 84 SW7 29.90R RICHLANDS CLEAR 78 75 90 SW7 29.90 ROCKY MOUNT CLEAR 77 73 87 SW6 29.86R WASHINGTON CLEAR 79 74 86 SW8 29.87R WHITEVILLE CLEAR 79 74 85 SW6 29.92S $$ AMZ130-135-150-152-154-156-158-170-250-252-270-ANZ085-086-088-633-658-670-291200- MARINE OBSERVATIONS STATION/POSITION TIME TEMP WIND PRES WAVE SWELL AIR SEA DIR/SP/G HT/PER HT/PER (UTC) (F) (DEG/KT/KT) (MB) (FT/S) (FT/S) CHESAPEAKE LIGHT NOT AVBL 64 E VA BEACH 1050 83 82 230/ 14/ 16 1009.5 3/ 5 2/ 8 DUCK 1100 83 66 230/ 14/ 19 1009.9 2 E DUCK 1011 72 N/A 1/ 8 OREGON INLET 1100 83 84 230/ 14/ 18 1010.9 13E OREGON INLT 1100 80 N/A 3/ 6 2/ 6 HATTERAS CG 1100 81 83 230/ 8/ 11 1011.6 DIAMOND BUOY 1050 84 85 240/ 16/ 19 1011.9 4/ 6 2/12 CAPE LOOKOUT 1100 83 240/ 13/ 16 1012.2 BEAUFORT LAB 1100 82 83 240/ 5/ 9 1011.8 30 SE NEW RVR IN 1008 84 85 240/ 19/ 23 1012.3 30 SE NEW RVR IN 1025 85 N/A 5/ 6 27 SE WRIGHTSVLE 1008 84 84 240/ 17/ 23 1012.9 5 SE WRIGHTSVLE NOT AVBL 225 S CAPE HAT 1050 83 84 240/ 8/ 10 1016.0 3/ 6 3/ 6 41 SE CHARLESTON 1050 85 86 250/ 17/ 19 1014.1 4/ 5 $$

USA.gov is the U.S. government's official web portal to all federal, state and local government web resources and services.